Terminal Aerodrome Forecast
Issued by NWS

Home | Current Version | Previous Version | Text Only | Print | Product List | Glossary On
Versions: 1 2 3 4 5 6 7 8 9 10 11 12 13 14 15 16 17 18 19 20
000
FTUS45 KTFX 010258 AAD
TAFHVR
TAF AMD
KHVR 010258Z 0103/0124 VRB05KT 2SM HZ BKN035
     FM011600 33008KT P6SM VCSH BKN080
     FM012100 35012KT P6SM SCT050 BKN080 PROB30 0121/0124 VRB25G35KT
      -TSRA BKN050CB=

USA.gov is the U.S. government's official web portal to all federal, state and local government web resources and services.